Location: Unspecified
(0.0000°N, 0.0000°E)
Time: 18:58:46
(UTC+00:00)

Vanguard 2 - Pass Details

Date: 28 November 2019
Orbit: 553 x 2938 km, 32.9° (Epoch: 08 December)

Event Time Altitude Azimuth Distance (km) Brightness Sun altitude
Rises 23:53:48 0° 221° (SW) 5,354 12.0 -68.7°
Reaches altitude 10° 23:57:08 10° 215° (SW) 4,643 11.6 -68.7°
Enters shadow 23:58:33 15° 211° (SSW) 4,368 11.4 -68.6°
Exits shadow 00:25:13 15° 78° (ENE) 5,300 11.7 -66.9°
Drops below altitude 10° 00:27:29 10° 75° (ENE) 5,742 11.9 -66.7°
Sets 00:32:06 0° 70° (ENE) 6,670 12.4 -66.2°
